Voltar ao catálogo

FREGAT DEB

AtivoSSO
NORAD 40078·DEBRIS·🇷🇺 Russia

Lançado Jul 8, 2014 de Baikonur Cosmodrome

Loading…

Próximas Passagens (próximas 24 horas)

TLE

AtualizadoSource: Space-Track

Época: Sep 14, 2026, 08:16 UTC

1 40078U 14037K   26257.34457051  .00000214  00000-0  53756-4 0  9992
2 40078  98.0792 232.3656 0130831 148.9241 211.9780 14.55729032646099

Acompanhe FREGAT DEB em tempo real com AllMySat

Download on the App Store